Location: Campillo
(40.8621°N, 4.2488°W)
Time: 03:32:47
(UTC+00:00)

Cosmos 2084 - Pass Details

Date: 30 September 2021
Orbit: 529 x 652 km, 62.8° (Epoch: 19 October)

Event Time Altitude Azimuth Distance (km) Brightness Sun altitude
Exits shadow 05:28:34 11° 286° (WNW) 1,745 5.3 -9.2°
Maximum altitude 05:30:51 16° 322° (NW) 1,477 5.2 -8.7°
Drops below altitude 10° 05:33:24 10° 0° (N) 1,829 6.0 -8.2°
Sets 05:36:25 0° 23° (NNE) 2,751 7.3 -7.7°
